Indiana, PA

12:21 PM EDT on October 18, 2017 (GMT -0400)
Indiana County-Stewart

Weather History for KIDI - November, 2012

Change the Weather History Date:

Thursday, November 1, 2012

  Actual Average Record
Temperature  
Mean Temperature 38 °F -  
Max Temperature 41 °F 60 °F 79 °F (1950)
Min Temperature 35 °F 39 °F 25 °F (1954)
Degree Days  
Heating Degree Days 27    
Moisture  
Dew Point 38 °F    
Average Humidity 100    
Maximum Humidity 100    
Minimum Humidity 100    
Precipitation  
Precipitation 0.19 in - - ()
Sea Level Pressure  
Sea Level Pressure 29.67 in    
Wind  
Wind Speed 12 mph (West)    
Max Wind Speed 17 mph    
Max Gust Speed 25 mph    
Visibility 9 miles    
Events      
Averages and records for this station are not official NWS values.
T = Trace of Precipitation, MM = Missing Value Source: NWS Daily Summary

Daily Weather History Graph

Daily Weather History Graph

Search for Another Location

Airport or City:

Trip Planner

Search our weather history database for the weather conditions in past years. The results will help you decide how hot, cold, wet, or windy it might be!

Date:

Astronomy

Nov. 01, 2012 Rise Set
Actual Time 7:47 AM EDT 6:12 PM EDT
Civil Twilight 7:18 AM EDT 6:40 PM EDT
Nautical Twilight 6:46 AM EDT 7:12 PM EDT
Astronomical Twilight 6:14 AM EDT 7:44 PM EDT
Moon 8:07 PM EDT (11/1) 10:18 AM EDT (11/1)
Length of Visible Light 11h 21m
Length of Day
10h 25m
Waning Gibbous, 93% of the Moon is Illuminated
Nov 1
Waning Gibbous
Nov 6
Last Quarter
Nov 13
New
Nov 20
First Quarter
Nov 28
Full

Hourly Weather History & Observations

Time (EDT) Temp. Windchill Dew Point Humidity Pressure Visibility Wind Dir Wind Speed Gust Speed Precip Events Conditions
12:15 AM 37.4 °F 30.3 °F 37.4 °F 100% 29.62 in 10.0 mi West 10.4 mph 17.3 mph N/A   Unknown
12:35 AM 37.4 °F 29.8 °F 37.4 °F 100% 29.61 in 10.0 mi WSW 11.5 mph 16.1 mph N/A   Unknown
12:55 AM 37.4 °F 29.8 °F 37.4 °F 100% 29.62 in 10.0 mi WSW 11.5 mph 17.3 mph 0.01 in   Unknown
1:15 AM 37.4 °F 29.3 °F 37.4 °F 100% 29.62 in 10.0 mi West 12.7 mph 17.3 mph N/A   Unknown
1:35 AM 37.4 °F 28.9 °F 37.4 °F 100% 29.62 in 10.0 mi West 13.8 mph 18.4 mph N/A   Unknown
2:15 AM 37.4 °F 29.3 °F 37.4 °F 100% 29.62 in 10.0 mi WSW 12.7 mph - N/A   Unknown
2:35 AM 37.4 °F 29.8 °F 37.4 °F 100% 29.62 in 10.0 mi West 11.5 mph 17.3 mph 0.01 in   Unknown
2:55 AM 37.4 °F 29.8 °F 37.4 °F 100% 29.62 in 10.0 mi West 11.5 mph - 0.02 in   Unknown
3:15 AM 37.4 °F 29.3 °F 37.4 °F 100% 29.62 in 10.0 mi West 12.7 mph - N/A   Unknown
3:35 AM 37.4 °F 29.8 °F 37.4 °F 100% 29.61 in 10.0 mi West 11.5 mph - 0.01 in   Unknown
3:55 AM 37.4 °F 30.3 °F 37.4 °F 100% 29.62 in 7.0 mi West 10.4 mph - 0.02 in   Unknown
4:15 AM 37.4 °F 29.8 °F 37.4 °F 100% 29.61 in 7.0 mi West 11.5 mph 17.3 mph 0.02 in   Unknown
4:35 AM 37.4 °F 29.8 °F 37.4 °F 100% 29.61 in 7.0 mi West 11.5 mph 18.4 mph 0.03 in   Unknown
4:55 AM 37.4 °F 28.9 °F 37.4 °F 100% 29.61 in 7.0 mi West 13.8 mph 17.3 mph 0.03 in   Unknown
5:15 AM 37.4 °F 29.3 °F 37.4 °F 100% 29.62 in 7.0 mi West 12.7 mph - 0.01 in   Unknown
5:35 AM 37.4 °F 29.8 °F 37.4 °F 100% 29.62 in 10.0 mi West 11.5 mph - 0.02 in   Unknown
5:55 AM 37.4 °F 29.8 °F 37.4 °F 100% 29.62 in 10.0 mi West 11.5 mph 19.6 mph 0.02 in   Unknown
6:15 AM 37.4 °F 29.8 °F 37.4 °F 100% 29.62 in 10.0 mi West 11.5 mph 16.1 mph N/A   Unknown
6:35 AM 37.4 °F 28.9 °F 37.4 °F 100% 29.62 in 10.0 mi West 13.8 mph 18.4 mph 0.01 in   Unknown
6:55 AM 37.4 °F 29.3 °F 37.4 °F 100% 29.63 in 10.0 mi West 12.7 mph 17.3 mph 0.02 in   Unknown
7:15 AM 37.4 °F 29.8 °F 37.4 °F 100% 29.63 in 7.0 mi West 11.5 mph 18.4 mph 0.01 in   Unknown
7:35 AM 37.4 °F 28.9 °F 37.4 °F 100% 29.63 in 7.0 mi West 13.8 mph - 0.01 in   Unknown
7:55 AM 37.4 °F 29.8 °F 37.4 °F 100% 29.64 in 7.0 mi West 11.5 mph - 0.02 in   Unknown
8:35 AM 37.4 °F 29.8 °F 37.4 °F 100% 29.65 in 5.0 mi West 11.5 mph - 0.01 in   Unknown
8:55 AM 37.4 °F 29.8 °F 37.4 °F 100% 29.66 in 7.0 mi West 11.5 mph 19.6 mph 0.02 in   Unknown
9:35 AM 37.4 °F 28.9 °F 37.4 °F 100% 29.67 in 3.0 mi West 13.8 mph - 0.01 in   Unknown
9:55 AM 37.4 °F 28.9 °F 37.4 °F 100% 29.67 in 3.0 mi West 13.8 mph 17.3 mph 0.01 in   Unknown
10:15 AM 37.4 °F 29.3 °F 37.4 °F 100% 29.67 in 4.0 mi WSW 12.7 mph - N/A   Unknown
10:35 AM 37.4 °F 28.2 °F 37.4 °F 100% 29.67 in 7.0 mi West 16.1 mph 19.6 mph 0.01 in   Unknown
10:55 AM 37.4 °F 28.9 °F 37.4 °F 100% 29.67 in 7.0 mi West 13.8 mph 17.3 mph 0.01 in   Unknown
11:15 AM 39.2 °F 32.0 °F 39.2 °F 100% 29.68 in 7.0 mi West 11.5 mph 17.3 mph N/A   Unknown
11:35 AM 39.2 °F 30.8 °F 39.2 °F 100% 29.68 in 7.0 mi West 15.0 mph 20.7 mph N/A   Unknown
12:15 PM 39.2 °F 31.6 °F 39.2 °F 100% 29.68 in 7.0 mi West 12.7 mph 17.3 mph N/A   Unknown
12:35 PM 39.2 °F 31.6 °F 39.2 °F 100% 29.67 in 10.0 mi West 12.7 mph - N/A   Unknown
12:55 PM 39.2 °F 32.0 °F 39.2 °F 100% 29.67 in 10.0 mi West 11.5 mph 18.4 mph N/A   Unknown
1:15 PM 39.2 °F 30.2 °F 39.2 °F 100% 29.67 in 7.0 mi West 17.3 mph 20.7 mph N/A   Unknown
1:35 PM 39.2 °F 30.2 °F 39.2 °F 100% 29.66 in 5.0 mi West 17.3 mph 21.9 mph N/A   Unknown
1:55 PM 39.2 °F 30.8 °F 39.2 °F 100% 29.66 in 5.0 mi West 15.0 mph 23.0 mph N/A   Unknown
2:15 PM 39.2 °F 31.6 °F 39.2 °F 100% 29.66 in 10.0 mi West 12.7 mph 21.9 mph N/A   Unknown
2:35 PM 39.2 °F 31.6 °F 39.2 °F 100% 29.66 in 10.0 mi West 12.7 mph - N/A   Unknown
2:55 PM 41.0 °F 33.1 °F 41.0 °F 100% 29.66 in 10.0 mi West 15.0 mph - N/A   Unknown
3:15 PM 41.0 °F 34.3 °F 41.0 °F 100% 29.66 in 10.0 mi West 11.5 mph - N/A   Unknown
3:35 PM 39.2 °F 32.0 °F 39.2 °F 100% 29.66 in 7.0 mi West 11.5 mph - N/A   Unknown
3:55 PM 39.2 °F 31.6 °F 39.2 °F 100% 29.66 in 10.0 mi West 12.7 mph 19.6 mph N/A   Unknown
4:15 PM 41.0 °F 35.2 °F 41.0 °F 100% 29.67 in 10.0 mi West 9.2 mph - N/A   Unknown
4:35 PM 39.2 °F 32.0 °F 39.2 °F 100% 29.67 in 10.0 mi West 11.5 mph 18.4 mph N/A   Unknown
4:55 PM 39.2 °F 33.6 °F 39.2 °F 100% 29.67 in 10.0 mi West 8.1 mph - N/A   Unknown
5:15 PM 39.2 °F 33.0 °F 39.2 °F 100% 29.68 in 10.0 mi WNW 9.2 mph 17.3 mph 0.01 in   Unknown
5:35 PM 39.2 °F 32.0 °F 39.2 °F 100% 29.69 in 10.0 mi West 11.5 mph - 0.01 in   Unknown
5:55 PM 39.2 °F 33.0 °F 39.2 °F 100% 29.69 in 10.0 mi West 9.2 mph - 0.01 in   Unknown
6:15 PM 39.2 °F 32.0 °F 39.2 °F 100% 29.70 in 10.0 mi West 11.5 mph - N/A   Unknown
6:35 PM 39.2 °F 32.5 °F 39.2 °F 100% 29.70 in 10.0 mi West 10.4 mph - N/A   Unknown
6:55 PM 39.2 °F 31.6 °F 39.2 °F 100% 29.71 in 10.0 mi West 12.7 mph 18.4 mph N/A   Unknown
7:15 PM 39.2 °F 33.0 °F 39.2 °F 100% 29.72 in 10.0 mi West 9.2 mph - N/A   Unknown
7:35 PM 39.2 °F 32.0 °F 39.2 °F 100% 29.73 in 10.0 mi West 11.5 mph 16.1 mph N/A   Unknown
7:55 PM 37.4 °F 29.3 °F 37.4 °F 100% 29.73 in 10.0 mi WNW 12.7 mph 25.3 mph N/A   Unknown
8:15 PM 37.4 °F 28.9 °F 37.4 °F 100% 29.73 in 10.0 mi West 13.8 mph 18.4 mph N/A   Unknown
8:35 PM 37.4 °F 28.9 °F 37.4 °F 100% 29.73 in 10.0 mi West 13.8 mph 18.4 mph N/A   Unknown
8:55 PM 37.4 °F 29.8 °F 37.4 °F 100% 29.74 in 7.0 mi West 11.5 mph 20.7 mph N/A   Unknown
9:15 PM 37.4 °F 30.3 °F 37.4 °F 100% 29.74 in 10.0 mi West 10.4 mph 19.6 mph N/A   Unknown
9:35 PM 37.4 °F 29.3 °F 37.4 °F 100% 29.74 in 10.0 mi WNW 12.7 mph 17.3 mph N/A   Unknown
9:55 PM 37.4 °F 32.1 °F 37.4 °F 100% 29.74 in 10.0 mi West 6.9 mph 16.1 mph N/A   Unknown
10:15 PM 37.4 °F 32.8 °F 37.4 °F 100% 29.74 in 10.0 mi WNW 5.8 mph - N/A   Unknown
10:35 PM 35.6 °F 29.9 °F 35.6 °F 100% 29.74 in 10.0 mi West 6.9 mph - N/A   Unknown
10:55 PM 35.6 °F 30.7 °F 35.6 °F 100% 29.74 in 10.0 mi WSW 5.8 mph - N/A   Unknown
11:15 PM 35.6 °F 31.7 °F 35.6 °F 100% 29.74 in 10.0 mi WSW 4.6 mph - N/A   Unknown
11:35 PM 35.6 °F 30.7 °F 35.6 °F 100% 29.74 in 10.0 mi WSW 5.8 mph - N/A   Unknown
11:55 PM 35.6 °F 31.7 °F 35.6 °F 100% 29.74 in 10.0 mi WSW 4.6 mph - N/A   Unknown